Flag for Marshall Islands Weather past 2 weeks in Majuro, Marshall Islands

Now
81 °F

Cloudy.


Feels Like: 88 °F
Forecast: 82 / 84 °F
Wind: 8 mph from East

Location: Majuro Atoll


UV Index: 3 (Moderate)

Visibility: 15 mi


Pressure: 29.82 "Hg

Humidity: 85%

Dew point: 76 °F

Location of MajuroLocation

Historic Weather in Majuro

°F

Majuro temperature yesterday

Maximum temperature yesterday: 87 °F (at 1:51 PM)
Minimum temperature yesterday: 79 °F (at 2:51 AM)
Average temperature yesterday: 82 °F

Past Weeks' High & Low Weather Summary

 TemperatureHumidityPressure
High87 °F (Apr 19, 12:53 PM)96% (Apr 13, 9:52 AM)29.90 "Hg (Apr 13, 9:52 AM)
Low75 °F (Apr 13, 10:51 AM)72% (Apr 12, 3:54 PM)29.72 "Hg (Apr 8, 2:53 PM)
Average81 °F85%29.80 "Hg
* Reported Apr 6 3:51 PM — Apr 21 3:53 PM, Majuro, Weather by CustomWeather, © 2014

Note: Actual official high and low records may vary slightly from our data, if they occured in-between our weather recording intervals... More about our weather records

Advertising

Historic Weather Conditions — Data for Previous 24 hours

 ConditionsComfort  
Time TempWeatherWind HumidityBarometerVisibility
3:53 PM
Apr 21
81 °FCloudy.9 mph85%29.81 "Hg15 mi
2:52 PM80 °FCloudy.10 mph85%29.80 "Hg15 mi
1:52 PM80 °FCloudy.9 mph87%29.82 "Hg15 mi
12:52 PM80 °FCloudy.13 mph88%29.85 "Hg15 mi
11:50 AM82 °FCloudy.12 mph86%29.88 "Hg15 mi
10:50 AM80 °FCloudy.13 mph89%29.90 "Hg15 mi
9:54 AM80 °FCloudy.12 mph86%29.90 "Hg15 mi
8:52 AM80 °FCloudy.15 mph87%29.89 "Hg15 mi
7:50 AM81 °FCloudy.14 mph86%29.87 "Hg15 mi
6:55 AM78 °FSprinkles. Overcast.2 mph94%29.85 "Hg8 mi
5:51 AM79 °FSprinkles. Overcast.10 mph93%29.83 "Hg7 mi
4:54 AM82 °FOvercast.14 mph83%29.80 "Hg15 mi
3:52 AM81 °FOvercast.13 mph87%29.78 "Hg15 mi
2:52 AM82 °FOvercast.10 mph85%29.78 "Hg15 mi
1:51 AM81 °FOvercast.14 mph86%29.80 "Hg15 mi
12:52 AM82 °FOvercast.13 mph87%29.82 "Hg15 mi
11:52 PM
Apr 20
82 °FOvercast.12 mph84%29.83 "Hg15 mi
10:51 PM81 °FOvercast.16 mph83%29.85 "Hg15 mi
9:51 PM82 °FOvercast.15 mph82%29.84 "Hg15 mi
8:52 PM82 °FOvercast.10 mph84%29.83 "Hg15 mi
7:58 PM80 °FOvercast.12 mph88%29.82 "Hg15 mi
6:55 PM81 °FCloudy.18 mph86%29.80 "Hg15 mi
5:52 PM80 °FCloudy.17 mph91%29.78 "Hg15 mi
Weather by CustomWeather, © 2014

See weather overview